• In Kazakhstan
  • List of Countries
  • For 7 days
  • Water Temperature
  • Weather Map
  • News
  • Weather Widgets
  • user-avatar
    Login

    Hourly Weather Sarafovo

    Today, 18 August, Sunday

    Time Temperature Precipitation Wind Pressure Humidity
    00:00 +20°C° 0 mm 1 mps 758 mmHg 72%
    01:00 +20°C° 0 mm 1 mps 758 mmHg 74%
    02:00 +18°C° 0 mm 2 mps 758 mmHg 76%
    03:00 +18°C° 0 mm 2 mps 758 mmHg 76%
    04:00 +18°C° 0 mm 2 mps 758 mmHg 75%
    05:00 +17°C° 0 mm 2 mps 758 mmHg 75%
    06:00 +20°C° 0 mm 2 mps 758 mmHg 64%
    07:00 +23°C° 0 mm 2 mps 758 mmHg 52%
    08:00 +25°C° 0 mm 2 mps 759 mmHg 41%
    09:00 +27°C° 0 mm 3 mps 759 mmHg 36%
    10:00 +29°C° 0 mm 3 mps 759 mmHg 31%
    11:00 +30°C° 0 mm 4 mps 759 mmHg 26%
    12:00 +30°C° 0 mm 5 mps 759 mmHg 26%
    13:00 +32°C° 0 mm 5 mps 758 mmHg 27%
    14:00 +32°C° 0 mm 5 mps 758 mmHg 27%
    15:00 +30°C° 0 mm 5 mps 758 mmHg 30%
    16:00 +29°C° 0 mm 5 mps 758 mmHg 32%
    17:00 +28°C° 0 mm 4 mps 758 mmHg 35%
    18:00 +26°C° 0 mm 4 mps 758 mmHg 44%
    19:00 +24°C° 0 mm 3 mps 759 mmHg 52%
    20:00 +20°C° 0 mm 2 mps 759 mmHg 61%
    21:00 +20°C° 0 mm 2 mps 759 mmHg 64%
    22:00 +20°C° 0 mm 1 mps 759 mmHg 66%
    23:00 +20°C° 0 mm 1 mps 759 mmHg 69%

    Tomorrow, 19 August, Monday

    Time Temperature Precipitation Wind Pressure Humidity
    00:00 +19°C° 0 mm 1 mps 759 mmHg 70%
    01:00 +19°C° 0 mm 1 mps 759 mmHg 71%
    02:00 +19°C° 0 mm 1 mps 759 mmHg 72%
    03:00 +19°C° 0 mm 1 mps 759 mmHg 71%
    04:00 +19°C° 0 mm 1 mps 759 mmHg 71%
    05:00 +18°C° 0 mm 2 mps 759 mmHg 71%
    06:00 +20°C° 0 mm 2 mps 760 mmHg 61%
    07:00 +24°C° 0 mm 1 mps 760 mmHg 51%
    08:00 +26°C° 0 mm 1 mps 760 mmHg 41%
    09:00 +28°C° 0 mm 2 mps 760 mmHg 38%
    10:00 +29°C° 0 mm 4 mps 760 mmHg 34%
    11:00 +32°C° 0 mm 5 mps 760 mmHg 31%
    12:00 +32°C° 0 mm 5 mps 760 mmHg 31%
    13:00 +32°C° 0 mm 5 mps 760 mmHg 31%
    14:00 +32°C° 0 mm 5 mps 760 mmHg 31%
    15:00 +32°C° 0 mm 5 mps 760 mmHg 33%
    16:00 +30°C° 0 mm 5 mps 760 mmHg 34%
    17:00 +29°C° 0 mm 5 mps 759 mmHg 36%
    18:00 +27°C° 0 mm 4 mps 760 mmHg 48%
    19:00 +24°C° 0 mm 3 mps 760 mmHg 60%
    20:00 +22°C° 0 mm 1 mps 760 mmHg 72%
    21:00 +21°C° 0 mm 1 mps 760 mmHg 74%
    22:00 +21°C° 0 mm 1 mps 761 mmHg 77%
    23:00 +20°C° 0 mm 1 mps 761 mmHg 80%

    Day after tomorrow, 20 August, Tuesday

    Time Temperature Precipitation Wind Pressure Humidity
    00:00 +20°C° 0 mm 1 mps 761 mmHg 80%
    01:00 +20°C° 0 mm 1 mps 761 mmHg 79%
    02:00 +19°C° 0 mm 2 mps 760 mmHg 79%
    03:00 +18°C° 0 mm 2 mps 760 mmHg 79%
    04:00 +18°C° 0 mm 2 mps 760 mmHg 79%
    05:00 +18°C° 0 mm 2 mps 760 mmHg 79%
    06:00 +20°C° 0 mm 2 mps 761 mmHg 71%
    07:00 +23°C° 0 mm 2 mps 761 mmHg 64%
    08:00 +25°C° 0 mm 3 mps 761 mmHg 57%
    09:00 +27°C° 0 mm 3 mps 761 mmHg 50%
    10:00 +29°C° 0 mm 4 mps 761 mmHg 43%
    11:00 +32°C° 0 mm 5 mps 761 mmHg 36%
    12:00 +32°C° 0 mm 5 mps 761 mmHg 35%
    13:00 +33°C° 0 mm 5 mps 761 mmHg 33%
    14:00 +33°C° 0 mm 5 mps 760 mmHg 31%
    15:00 +32°C° 0 mm 5 mps 760 mmHg 32%
    16:00 +32°C° 0 mm 5 mps 760 mmHg 33%
    17:00 +30°C° 0 mm 5 mps 760 mmHg 35%
    18:00 +28°C° 0 mm 3 mps 760 mmHg 44%
    19:00 +25°C° 0 mm 2 mps 760 mmHg 54%
    20:00 +22°C° 0 mm 1 mps 760 mmHg 63%
    21:00 +22°C° 0 mm 1 mps 760 mmHg 64%
    22:00 +22°C° 0 mm 1 mps 760 mmHg 66%
    23:00 +21°C° 0 mm 1 mps 761 mmHg 67%

    21 August, Wednesday

    Time Temperature Precipitation Wind Pressure Humidity
    00:00 +20°C° 0 mm 2 mps 760 mmHg 67%
    01:00 +20°C° 0 mm 2 mps 760 mmHg 67%
    02:00 +19°C° 0 mm 2 mps 760 mmHg 67%
    03:00 +19°C° 0 mm 2 mps 759 mmHg 66%
    04:00 +19°C° 0 mm 2 mps 759 mmHg 65%
    05:00 +19°C° 0 mm 2 mps 759 mmHg 64%
    06:00 +22°C° 0 mm 3 mps 759 mmHg 58%
    07:00 +25°C° 0 mm 3 mps 759 mmHg 52%
    08:00 +27°C° 0 mm 3 mps 760 mmHg 46%
    09:00 +29°C° 0 mm 4 mps 760 mmHg 43%
    10:00 +33°C° 0 mm 4 mps 759 mmHg 40%
    11:00 +35°C° 0 mm 5 mps 759 mmHg 37%
    12:00 +35°C° 0 mm 5 mps 759 mmHg 37%
    13:00 +35°C° 0 mm 5 mps 759 mmHg 38%
    14:00 +35°C° 0 mm 5 mps 758 mmHg 38%
    15:00 +34°C° 0 mm 5 mps 758 mmHg 41%
    16:00 +34°C° 0 mm 5 mps 758 mmHg 44%
    17:00 +33°C° 0 mm 5 mps 758 mmHg 47%
    18:00 +30°C° 0 mm 4 mps 758 mmHg 56%
    19:00 +28°C° 0 mm 3 mps 758 mmHg 65%
    20:00 +26°C° 0 mm 2 mps 758 mmHg 74%
    21:00 +25°C° 0 mm 2 mps 758 mmHg 75%
    22:00 +25°C° 0 mm 2 mps 758 mmHg 76%
    23:00 +25°C° 0 mm 1 mps 758 mmHg 76%

    22 August, Thursday

    Time Temperature Precipitation Wind Pressure Humidity
    00:00 +25°C° 0 mm 2 mps 758 mmHg 75%
    01:00 +25°C° 0 mm 2 mps 758 mmHg 74%
    02:00 +24°C° 0 mm 3 mps 758 mmHg 73%
    03:00 +24°C° 0 mm 3 mps 758 mmHg 73%
    04:00 +24°C° 0 mm 3 mps 758 mmHg 72%
    05:00 +24°C° 0 mm 3 mps 758 mmHg 71%
    06:00 +26°C° 0 mm 4 mps 758 mmHg 64%
    07:00 +28°C° 0 mm 5 mps 758 mmHg 56%
    08:00 +30°C° 0 mm 6 mps 758 mmHg 49%
    09:00 +33°C° 0 mm 6 mps 758 mmHg 43%
    10:00 +35°C° 0 mm 6 mps 759 mmHg 37%
    11:00 +36°C° 0 mm 6 mps 759 mmHg 31%
    12:00 +38°C° 0 mm 6 mps 758 mmHg 30%
    13:00 +39°C° 0 mm 6 mps 758 mmHg 29%
    14:00 +39°C° 0 mm 6 mps 758 mmHg 28%
    15:00 +38°C° 0 mm 6 mps 758 mmHg 30%
    16:00 +36°C° 0 mm 6 mps 758 mmHg 31%
    17:00 +35°C° 0 mm 5 mps 757 mmHg 32%
    18:00 +33°C° 0 mm 4 mps 758 mmHg 40%
    19:00 +29°C° 0 mm 3 mps 758 mmHg 48%
    20:00 +27°C° 0 mm 1 mps 758 mmHg 56%
    21:00 +27°C° 0 mm 2 mps 758 mmHg 55%
    22:00 +27°C° 0 mm 3 mps 758 mmHg 54%
    23:00 +27°C° 0 mm 4 mps 758 mmHg 53%

    23 August, Friday

    Time Temperature Precipitation Wind Pressure Humidity
    00:00 +27°C° 0 mm 5 mps 758 mmHg 55%
    01:00 +26°C° 0 mm 5 mps 758 mmHg 57%
    02:00 +26°C° 0 mm 6 mps 758 mmHg 59%
    03:00 +24°C° 0 mm 6 mps 758 mmHg 63%
    04:00 +23°C° 0 mm 6 mps 758 mmHg 67%
    05:00 +23°C° 0 mm 6 mps 758 mmHg 70%
    06:00 +24°C° 0 mm 6 mps 759 mmHg 66%
    07:00 +24°C° 0 mm 6 mps 759 mmHg 62%
    08:00 +26°C° 0 mm 6 mps 759 mmHg 57%
    09:00 +29°C° 0 mm 6 mps 759 mmHg 51%
    10:00 +32°C° 0 mm 6 mps 759 mmHg 44%
    11:00 +34°C° 0 mm 6 mps 759 mmHg 37%
    12:00 +35°C° 0 mm 6 mps 759 mmHg 35%
    13:00 +36°C° 0 mm 6 mps 759 mmHg 33%
    14:00 +38°C° 0 mm 7 mps 759 mmHg 31%
    15:00 +36°C° 0 mm 7 mps 758 mmHg 35%
    16:00 +35°C° 0 mm 7 mps 758 mmHg 39%
    17:00 +34°C° 0 mm 6 mps 758 mmHg 43%
    18:00 +32°C° 0 mm 5 mps 758 mmHg 51%
    19:00 +29°C° 0 mm 4 mps 759 mmHg 59%
    20:00 +27°C° 0 mm 3 mps 759 mmHg 67%
    21:00 +26°C° 0 mm 3 mps 759 mmHg 65%
    22:00 +26°C° 0 mm 3 mps 759 mmHg 62%
    23:00 +26°C° 0 mm 3 mps 759 mmHg 60%
    Show more